Temp
63 63 63 63 62 62 62 62 62 62 62 62 62 61 61 61 61 62 62 62 63 63 62 62 63 64 73 80 86 99 84 85 98 99 96 97 96 97 91 94 95 87 92 95 96 96 96
63 63 62 62 62 62 62 62 62 62 62 62 61 61 61 61 61 61 61 61 62 62 62 62 63 63 74 77 107 107 103 98 101 100 99 100 99 101 95 94 91 93 94 95 96 96 96
62 62 62 62 62 61 61 61 61 61 61 61 61 61 61 61 61 61 61 60 61 62 62 63 64 73 80 85 107 108 106 102 104 103 99 104 105 99 99 92 98 95 89 93 94 95 93
62 62 62 62 61 61 61 61 61 61 61 61 61 61 61 61 61 60 59 60 60 61 61 63 65 76 78 104 106 105 107 105 108 108 105 108 107 100 97 100 95 89 90 81 90 93 94
62 62 62 62 61 61 61 61 61 61 61 60 61 61 60 60 60 59 58 59 60 61 63 65 71 78 82 94 97 104 106 102 105 106 106 108 103 96 97 89 84 87 77 81 83 94 92
62 62 62 61 61 61 60 60 60 60 60 60 60 60 60 60 59 58 58 59 61 62 68 80 83 79 88 91 99 102 106 105 100 100 98 96 94 89 90 87 72 78 79 81 78 81 91
62 62 62 61 61 61 61 60 60 60 60 60 60 60 60 59 58 57 61 71 75 75 81 83 86 88 95 101 105 100 105 102 101 96 86 92 84 81 87 90 88 87 80 81 87 91 87
62 62 61 61 61 60 60 60 60 60 60 60 60 59 59 58 58 57 63 78 90 94 81 85 90 94 100 103 92 98 105 93 92 84 90 87 80 90 94 90 88 87 83 83 87 91 88
61 61 61 60 60 60 60 60 59 59 59 59 59 59 58 58 57 59 75 85 99 98 82 90 91 92 95 98 91 93 99 95 89 85 86 82 88 94 91 89 85 85 83 83 81 87 89
61 61 61 61 61 60 59 59 59 59 59 59 58 58 57 56 55 83 79 89 95 97 74 83 86 91 96 96 88 102 103 96 90 85 88 87 94 91 89 85 88 81 91 88 86 83 74
61 61 60 60 60 60 59 59 59 58 58 58 58 58 56 55 66 82 94 98 100 94 60 89 89 104 98 90 94 95 104 97 87 87 88 84 88 88 85 86 91 84 91 88 87 83 82
61 61 61 61 60 60 59 58 58 58 58 58 57 56 56 64 68 80 94 99 92 71 62 82 88 87 87 89 91 97 95 99 98 90 90 89 97 93 91 92 93 94 89 87 87 84 71
61 60 60 60 59 59 59 58 58 58 57 57 55 54 55 74 83 95 95 89 70 65 87 81 81 87 86 84 87 90 87 84 81 76 77 86 88 94 95 87 92 90 83 70 69 69 57
61 60 60 60 60 59 59 59 58 58 57 56 53 53 58 68 87 92 90 77 63 78 81 91 88 86 81 86 86 88 84 81 87 86 82 76 74 88 93 87 85 85 83 72 59 61 61
61 60 60 60 59 59 59 59 58 58 57 55 52 67 77 82 79 90 81 67 71 81 90 87 88 80 80 86 86 86 84 82 87 89 78 78 77 93 93 93 91 85 79 87 72 72 64
60 60 60 60 59 59 59 58 58 58 56 54 70 83 87 92 87 86 75 65 80 90 90 89 79 84 77 82 81 83 82 88 87 92 94 86 77 90 93 94 93 88 87 70 72 58 56
60 60 60 60 59 59 59 59 58 57 55 54 72 79 90 94 91 80 70 75 83 92 91 85 84 83 84 83 84 83 83 89 92 92 93 90 85 84 91 85 83 85 81 83 79 75 63
60 60 59 59 59 59 59 59 57 56 54 56 80 74 91 94 75 78 75 82 74 89 92 89 90 87 86 87 84 83 83 88 96 94 86 91 87 78 82 93 94 91 86 87 76 71 76
60 60 59 59 59 59 60 59 57 55 54 65 76 83 93 91 72 76 82 84 89 86 88 87 86 90 92 87 81 86 87 96 97 93 88 90 81 73 78 87 91 86 88 89 88 86 70
59 59 59 59 59 60 59 58 57 56 55 61 77 75 82 84 84 79 80 81 82 90 88 90 88 89 88 85 90 84 87 94 96 94 80 87 86 79 64 67 79 81 86 88 86 78 73
59 59 59 59 59 60 59 59 57 56 56 64 79 76 87 75 78 80 81 84 82 81 89 90 85 85 86 82 84 84 88 91 93 85 89 90 78 83 85 82 78 79 75 85 83 84 78
59 59 60 59 59 60 59 59 58 56 55 74 77 75 83 82 86 82 74 81 82 85 84 83 83 82 83 69 71 70 72 75 85 90 88 91 78 82 79 86 81 76 79 87 87 87 80
59 59 59 59 59 59 59 59 58 56 58 78 83 84 80 74 84 82 82 82 83 87 89 84 78 71 70 66 73 71 70 71 75 83 86 85 82 77 72 83 83 77 85 86 87 89 82
58 59 59 59 59 59 59 59 59 57 56 67 77 78 74 73 81 75 70 64 84 85 81 72 78 60 72 66 66 78 75 75 76 71 94 84 81 80 74 78 65 84 95 91 87 89 80
58 58 58 58 59 59 59 59 59 58 57 65 75 76 74 69 78 64 75 72 85 85 83 62 70 90 94 70 72 58 54 65 71 91 92 92 84 76 71 72 79 84 81 81 81 83 91
58 58 58 58 58 59 59 59 59 59 57 65 74 80 75 72 77 82 80 83 80 79 84 86 92 96 94 85 81 59 66 67 59 80 91 88 85 79 75 68 64 71 77 84 87 76 90
57 57 58 58 58 58 59 59 60 59 58 61 72 82 76 71 84 82 78 77 83 79 78 78 85 87 92 81 66 50 53 54 63 71 74 77 76 72 72 66 63 62 71 76 62 70 82
57 57 57 57 58 58 58 59 59 59 58 61 72 83 75 72 80 84 85 79 80 81 66 61 70 86 84 76 73 55 54 57 60 57 56 71 70 70 72 66 50 66 66 60 67 80 86
56 56 57 57 57 58 58 58 59 59 59 59 71 85 85 73 77 85 88 89 86 84 80 84 82 78 81 78 72 59 52 54 53 55 59 68 75 68 68 68 71 69 64 64 64 74 85
MSLP
1020.54 1020.14 1019.80 1019.44 1019.07 1018.68 1018.28 1017.87 1017.47 1017.17 1016.85 1016.44 1016.12 1015.84 1015.53 1015.24 1014.91 1014.54 1014.20 1013.89 1013.68 1013.56 1013.41 1013.30 1013.08 1012.86 1011.90 1009.32 1005.68 1004.43 1004.96 1005.26 1005.30 1005.24 1004.52 1003.37 1001.76 1000.54 999.91 999.91 1000.10 1000.89 1000.40 1000.49 1000.46 1000.59 1000.45
1020.67 1020.25 1019.88 1019.51 1019.09 1018.70 1018.30 1017.87 1017.44 1017.05 1016.73 1016.41 1016.06 1015.80 1015.47 1015.14 1014.79 1014.43 1014.17 1013.81 1013.52 1013.41 1013.27 1013.19 1013.01 1012.92 1011.36 1007.12 1002.86 1003.22 1004.05 1004.60 1004.25 1004.30 1003.79 1002.91 1001.42 1000.67 1000.58 999.96 1000.23 1000.64 1000.25 1000.08 1000.04 1000.18 1000.12
1020.81 1020.38 1020.01 1019.60 1019.11 1018.67 1018.31 1017.86 1017.40 1017.00 1016.61 1016.28 1015.96 1015.68 1015.37 1015.02 1014.63 1014.27 1014.00 1013.71 1013.39 1013.23 1013.12 1013.04 1012.94 1012.32 1009.43 1005.34 1003.05 1002.97 1003.36 1003.50 1003.56 1003.36 1002.89 1002.19 1001.47 1001.13 1000.33 1000.07 1000.47 1000.41 1000.14 1000.04 999.86 999.98 1000.14
1020.87 1020.46 1020.05 1019.62 1019.12 1018.68 1018.24 1017.79 1017.36 1016.94 1016.55 1016.19 1015.86 1015.56 1015.23 1014.85 1014.47 1014.08 1013.84 1013.51 1013.24 1013.06 1012.95 1012.87 1012.79 1011.59 1007.43 1003.34 1003.58 1003.11 1002.85 1002.64 1002.77 1002.69 1002.36 1001.50 1001.50 1001.43 1000.64 1000.05 1000.30 1000.16 1000.00 999.58 999.84 1000.08 1000.32
1020.96 1020.55 1020.03 1019.53 1019.08 1018.68 1018.23 1017.75 1017.28 1016.86 1016.43 1016.03 1015.73 1015.44 1015.11 1014.70 1014.33 1013.90 1013.57 1013.25 1012.99 1012.82 1012.62 1012.54 1012.02 1010.11 1005.39 1003.43 1003.22 1002.75 1002.71 1002.06 1002.05 1002.25 1002.09 1001.76 1001.80 1001.49 1000.58 1000.09 999.82 999.59 999.37 999.51 1000.06 1000.14 1000.21
1021.08 1020.63 1020.09 1019.53 1019.05 1018.64 1018.20 1017.71 1017.22 1016.77 1016.35 1015.88 1015.54 1015.28 1014.91 1014.54 1014.17 1013.72 1013.33 1013.10 1012.79 1012.52 1012.03 1011.11 1009.97 1008.34 1004.19 1002.36 1002.36 1002.57 1002.44 1001.97 1001.87 1002.00 1002.10 1002.18 1001.99 1001.26 1000.20 999.40 999.49 999.28 999.40 999.67 1000.11 1000.92 1000.28
1021.21 1020.66 1020.17 1019.61 1019.11 1018.60 1018.12 1017.61 1017.09 1016.63 1016.18 1015.74 1015.33 1015.03 1014.67 1014.33 1013.99 1013.64 1013.10 1012.13 1011.71 1010.62 1009.02 1006.33 1004.99 1003.61 1001.49 1001.62 1001.76 1001.80 1001.81 1001.62 1001.59 1001.70 1001.59 1001.60 1001.23 1000.21 999.25 998.96 999.43 999.49 1000.01 999.11 999.40 999.65 1000.04
1021.15 1020.62 1020.12 1019.60 1019.08 1018.58 1018.07 1017.48 1016.94 1016.46 1016.00 1015.52 1015.14 1014.78 1014.42 1014.10 1013.84 1013.53 1013.12 1009.52 1005.94 1005.12 1004.92 1004.50 1003.71 1002.40 1001.36 1000.72 1001.02 1001.05 1001.34 1001.34 1001.19 1001.12 1001.24 1000.89 1000.34 999.35 998.77 999.85 999.23 999.09 998.92 998.66 998.79 999.36 999.98
1021.18 1020.71 1020.16 1019.56 1019.03 1018.53 1018.00 1017.36 1016.75 1016.27 1015.80 1015.32 1014.92 1014.55 1014.18 1013.87 1013.55 1013.00 1010.37 1007.44 1005.54 1004.96 1003.70 1001.45 1001.86 1001.47 1001.12 1001.27 1000.65 1000.50 1000.87 1000.99 1000.72 1000.81 1000.45 999.88 999.15 998.90 998.65 998.68 998.92 998.86 998.59 998.29 998.96 999.56 999.75
1021.17 1020.60 1020.04 1019.47 1018.89 1018.41 1017.86 1017.22 1016.58 1016.03 1015.52 1015.04 1014.60 1014.26 1013.98 1013.67 1013.49 1009.42 1008.41 1007.08 1006.46 1005.33 1003.05 999.78 1000.37 1000.42 1000.50 1000.79 1000.34 999.84 1000.28 1000.68 1000.36 1000.15 999.89 999.45 998.52 998.18 998.24 998.58 998.50 998.12 998.01 998.13 998.64 998.75 999.00
1021.14 1020.56 1020.01 1019.42 1018.79 1018.13 1017.53 1016.95 1016.33 1015.72 1015.15 1014.65 1014.25 1013.97 1013.76 1013.84 1011.85 1007.90 1005.47 1005.52 1005.16 1004.72 1001.42 997.35 998.71 998.75 999.38 999.92 998.75 999.06 999.70 1000.03 999.75 999.61 999.63 998.75 998.13 997.83 998.09 998.35 998.37 997.88 998.58 998.66 998.39 998.62 998.86
1021.08 1020.46 1019.84 1019.23 1018.57 1017.94 1017.35 1016.69 1016.01 1015.34 1014.71 1014.19 1013.78 1013.54 1013.48 1012.25 1011.49 1007.80 1006.14 1005.28 1005.23 1003.74 999.39 997.62 998.40 998.63 998.93 999.34 998.75 998.61 999.38 999.92 999.59 999.18 999.06 998.37 997.89 997.95 997.64 998.08 998.08 998.03 998.07 998.63 998.66 998.67 999.11
1021.05 1020.38 1019.73 1019.13 1018.48 1017.81 1017.09 1016.36 1015.57 1014.84 1014.18 1013.55 1013.05 1012.91 1013.03 1010.46 1007.49 1006.07 1006.25 1005.31 1003.89 1000.90 997.54 996.92 997.69 998.14 998.17 998.45 998.38 998.10 998.78 999.31 999.05 999.07 998.43 998.20 997.54 997.48 997.67 997.83 997.90 997.99 998.42 998.42 998.60 999.09 1001.52
1020.96 1020.28 1019.64 1018.96 1018.23 1017.52 1016.77 1015.97 1015.15 1014.33 1013.52 1012.78 1012.23 1011.86 1011.20 1010.25 1007.45 1006.41 1005.65 1004.71 1001.60 998.50 996.87 995.77 996.34 997.27 997.47 997.69 997.72 997.77 998.40 998.57 998.77 998.51 997.65 997.63 997.33 997.13 997.41 997.90 997.41 997.72 998.33 998.36 999.57 1000.94 1003.04
1020.92 1020.22 1019.57 1018.88 1018.14 1017.36 1016.55 1015.71 1014.89 1014.01 1013.08 1012.36 1011.90 1010.63 1008.90 1007.55 1008.31 1006.62 1005.19 1002.94 999.67 997.13 995.72 995.01 995.48 996.38 996.94 997.04 997.40 997.19 997.57 997.86 997.89 998.03 997.44 996.69 996.69 996.63 997.00 997.43 997.82 997.32 997.68 998.31 1000.54 1001.57 1003.56
1020.85 1020.19 1019.54 1018.80 1018.01 1017.16 1016.31 1015.52 1014.70 1013.68 1012.75 1012.21 1010.57 1007.51 1005.67 1005.69 1007.06 1006.05 1004.47 1001.32 998.63 996.93 995.99 995.50 995.04 995.63 995.95 996.12 996.68 996.50 996.87 997.02 997.04 997.16 997.11 996.33 995.87 995.66 995.81 996.78 997.14 997.13 998.17 999.40 1000.73 1001.66 1003.09
1020.80 1020.16 1019.47 1018.68 1017.88 1017.03 1016.16 1015.35 1014.45 1013.31 1012.07 1011.32 1009.78 1005.94 1004.68 1005.27 1005.90 1004.91 1002.67 1000.47 998.73 997.23 996.94 995.86 994.94 994.91 995.16 995.12 995.71 995.43 995.87 995.91 996.07 996.12 996.74 996.59 995.98 995.11 995.08 995.72 996.30 996.65 997.13 997.70 998.56 1000.33 1001.84
1020.66 1019.99 1019.32 1018.58 1017.79 1016.92 1016.03 1015.22 1014.43 1013.41 1011.73 1010.62 1007.86 1004.74 1004.50 1004.74 1004.58 1003.30 1001.57 999.62 998.22 996.76 996.94 996.39 995.55 994.86 994.56 994.56 994.80 995.20 994.84 994.64 994.92 995.55 995.71 996.46 995.93 995.19 994.92 995.20 995.82 995.66 995.69 996.16 996.71 997.53 999.22
1020.56 1019.89 1019.22 1018.50 1017.73 1016.88 1015.99 1015.10 1014.38 1013.75 1013.36 1011.90 1007.29 1004.09 1004.14 1003.94 1002.53 1001.30 1000.58 998.95 997.57 997.42 996.55 996.36 995.66 995.04 994.23 994.26 994.43 994.56 994.60 994.25 994.59 995.14 995.24 996.12 996.21 995.46 994.63 994.81 995.20 995.35 995.54 995.43 995.67 996.01 998.40
1020.52 1019.83 1019.13 1018.42 1017.66 1016.81 1015.93 1015.01 1014.14 1013.51 1013.17 1012.51 1007.48 1003.44 1003.58 1003.52 1002.33 1001.13 999.41 998.41 997.49 997.69 996.89 996.23 995.79 995.60 995.10 994.86 994.77 994.83 994.85 994.50 994.92 995.45 995.64 995.95 995.65 995.35 995.57 996.44 996.74 995.01 995.08 995.19 995.48 995.87 997.78
1020.56 1019.81 1019.10 1018.41 1017.67 1016.81 1015.90 1014.94 1013.82 1012.77 1012.02 1011.69 1006.84 1003.46 1001.10 1001.46 1001.24 1000.52 999.34 997.99 997.22 996.79 996.93 996.96 996.80 996.66 995.81 995.81 996.07 996.26 996.12 995.23 995.47 995.85 995.97 996.03 995.65 995.69 995.87 996.87 997.53 996.07 995.88 995.03 995.27 996.06 997.28
1020.54 1019.79 1019.07 1018.38 1017.68 1016.91 1016.05 1015.11 1013.98 1012.40 1010.68 1009.23 1006.15 1004.47 1002.33 1000.85 1000.02 999.80 998.80 997.80 996.96 996.41 996.50 996.88 997.02 997.71 997.83 999.38 999.63 999.40 999.38 998.33 995.88 995.97 995.86 995.97 995.85 995.79 995.85 995.61 995.93 996.60 995.99 995.01 994.93 995.59 997.45
1020.46 1019.85 1019.17 1018.46 1017.75 1017.02 1016.24 1015.41 1014.52 1013.43 1011.31 1008.72 1007.00 1005.56 1004.06 1001.48 999.57 999.46 998.75 998.60 997.57 996.61 996.08 997.62 998.42 999.69 1001.85 1003.14 1002.20 1000.32 1000.49 999.55 998.84 997.53 996.00 995.54 995.69 995.94 995.67 995.78 995.54 994.85 994.30 994.71 994.96 995.57 997.36
1020.50 1019.83 1019.19 1018.50 1017.78 1017.09 1016.40 1015.66 1014.93 1014.35 1014.15 1012.47 1008.97 1007.34 1005.13 1002.29 1000.66 1000.62 999.92 1000.61 997.97 997.33 997.81 999.82 999.72 1000.35 1002.72 1003.95 1005.02 1002.04 1001.32 1000.25 1000.22 998.24 995.84 995.42 995.39 995.87 995.98 995.80 995.37 994.93 994.33 994.64 995.47 996.24 998.79
1020.48 1019.84 1019.20 1018.54 1017.82 1017.14 1016.45 1015.77 1015.12 1014.52 1014.01 1012.66 1009.98 1008.10 1006.18 1004.01 1001.81 1001.85 1001.09 1001.00 998.93 998.71 998.65 1000.52 1001.10 999.30 998.42 1003.45 1004.05 1004.45 1005.46 1003.74 999.49 996.02 995.36 994.89 995.09 995.70 996.09 996.24 996.15 995.83 997.11 996.99 996.83 996.89 997.52
1020.47 1019.84 1019.20 1018.51 1017.85 1017.17 1016.49 1015.82 1015.18 1014.56 1013.94 1012.55 1010.22 1008.84 1007.65 1005.19 1002.11 1001.77 1000.73 1000.09 999.09 998.51 998.31 998.40 998.16 998.85 998.80 999.21 999.86 1002.10 1003.35 1003.05 1003.37 997.57 996.24 995.89 996.18 996.17 996.76 997.67 998.63 1000.10 999.89 999.40 998.77 998.42 998.30
1020.41 1019.76 1019.10 1018.46 1017.82 1017.17 1016.48 1015.83 1015.18 1014.58 1014.04 1013.53 1010.56 1008.88 1007.87 1005.76 1002.52 1001.91 1000.84 1000.46 999.97 999.83 999.27 999.19 999.01 997.89 997.61 998.12 1000.43 1004.26 1006.80 1006.52 1002.54 999.99 998.69 997.71 997.81 997.96 998.13 999.66 1002.26 1004.37 1003.22 1002.35 1002.70 1002.14 1001.05
1020.24 1019.65 1018.98 1018.31 1017.68 1017.07 1016.42 1015.79 1015.20 1014.62 1014.12 1013.53 1010.35 1008.69 1008.41 1006.53 1003.99 1002.87 1002.00 1001.56 1001.19 1000.79 1001.33 1002.81 1000.64 997.85 997.47 998.01 1000.14 1004.46 1006.52 1008.01 1006.49 1004.67 1002.12 1000.07 999.62 999.89 1000.17 1001.15 1004.24 1004.78 1005.55 1006.84 1006.75 1003.68 1001.18
1020.04 1019.44 1018.77 1018.10 1017.42 1016.83 1016.25 1015.65 1015.09 1014.62 1014.17 1013.84 1010.67 1008.50 1008.08 1007.61 1005.00 1004.11 1002.89 1002.41 1002.59 1002.48 1002.15 1001.19 1000.50 1000.56 1000.43 999.72 1001.94 1005.80 1007.92 1007.64 1006.71 1006.14 1005.17 1002.63 1000.87 1001.95 1002.74 1003.22 1004.75 1005.37 1006.73 1007.04 1006.14 1004.06 1001.80
Wind_Speed
15 16 16 15 15 15 15 15 15 13 14 14 13 13 13 13 13 12 11 10 10 10 10 11 12 12 10 10 15 11 11 9 11 14 16 16 18 13 5 8 3 13 4 2 7 3 7
16 16 16 15 15 15 16 16 16 15 13 13 12 13 13 13 14 13 12 11 9 9 10 10 11 12 8 15 9 9 13 13 15 16 16 17 14 9 10 1 3 10 6 7 6 5 2
15 16 16 16 16 15 15 15 16 15 15 13 13 13 13 14 14 13 13 11 9 9 10 10 9 8 11 19 3 7 9 15 18 18 17 16 16 10 11 4 9 12 9 9 9 7 1
15 16 16 16 15 15 15 15 16 15 14 13 13 14 14 14 15 14 14 11 10 10 10 10 8 9 10 8 18 10 12 15 19 17 19 13 8 13 14 6 9 14 13 11 5 6 6
16 16 16 16 16 15 15 15 15 15 14 13 13 15 15 14 14 13 13 11 10 10 11 10 8 10 14 4 15 13 14 16 17 13 17 7 6 15 19 11 13 10 10 5 12 11 4
17 16 16 17 17 16 15 15 15 15 14 13 12 15 15 13 13 13 12 10 8 9 8 10 12 10 13 13 14 17 17 17 15 16 13 11 11 14 16 14 9 6 2 12 10 1 10
16 18 18 17 17 17 17 16 16 15 15 14 13 14 15 12 12 11 12 6 7 8 13 11 17 13 6 16 15 16 18 18 18 17 16 17 14 17 21 11 12 11 17 11 13 8 4
17 17 17 17 17 16 17 16 15 15 15 14 14 13 13 11 11 10 8 8 9 9 9 28 21 18 10 8 13 15 19 16 20 18 18 17 17 21 15 14 4 9 12 12 7 7 6
17 17 17 17 17 16 16 17 17 16 15 15 14 13 12 11 11 7 13 17 9 14 9 16 25 17 13 10 14 18 20 20 17 20 20 20 20 19 13 11 12 12 15 2 4 9 9
18 17 18 18 19 18 17 17 18 17 16 16 14 13 12 11 7 10 11 16 17 13 8 12 21 18 18 12 17 18 21 19 14 18 20 20 22 15 16 8 12 16 14 10 11 11 9
18 18 18 18 18 18 18 18 18 18 17 16 15 13 10 5 14 7 7 14 10 7 8 18 20 9 15 17 11 21 21 20 20 18 15 18 20 9 8 14 14 17 8 14 15 13 17
19 19 19 21 22 20 18 19 18 18 18 17 15 12 9 8 7 16 16 0 6 8 11 10 10 15 18 19 22 21 19 20 17 18 17 22 14 16 14 11 16 19 12 11 14 15 13
20 19 19 20 20 19 20 20 19 19 19 17 15 12 9 10 6 10 9 8 7 11 10 13 20 18 20 16 21 17 21 20 17 15 17 19 21 14 13 13 16 16 13 11 10 11 3
20 19 20 20 22 21 21 21 21 21 21 19 14 8 13 14 8 11 8 10 11 14 21 15 15 17 20 19 22 19 19 18 21 19 13 16 15 19 11 17 15 11 17 12 6 7 6
20 20 21 21 21 22 22 22 22 23 23 20 13 7 7 9 14 10 9 13 11 17 17 7 14 18 18 19 16 18 20 20 19 22 19 16 18 16 20 17 18 18 16 9 6 9 8
20 20 21 22 22 22 23 22 23 25 24 20 6 9 8 13 14 9 10 19 19 15 12 9 10 13 17 20 21 19 19 20 21 22 19 19 13 18 21 17 20 21 7 5 1 5 14
20 20 21 22 22 22 25 24 25 26 27 15 7 8 8 13 11 8 12 19 20 9 6 8 7 11 16 17 19 17 16 17 22 20 19 20 17 11 18 14 19 16 17 14 17 7 6
20 20 20 21 21 22 24 25 24 24 30 3 7 5 9 11 9 10 13 23 13 6 8 11 16 17 16 16 20 19 16 17 12 20 21 18 12 14 16 17 19 19 18 19 13 13 12
20 21 21 22 21 23 25 25 23 19 15 9 6 7 8 10 8 12 18 23 10 11 8 11 11 12 9 15 17 18 19 14 13 14 18 14 15 14 17 18 19 16 21 20 16 19 6
20 22 21 22 21 24 25 26 24 21 14 5 7 3 6 8 12 16 15 19 8 13 17 14 12 13 15 12 16 13 18 13 10 8 9 13 18 16 4 14 16 22 19 14 18 12 6
21 20 22 20 21 23 25 26 26 26 25 5 5 5 7 9 13 19 13 18 17 18 17 12 13 17 14 11 14 14 15 12 12 8 10 16 18 19 13 16 3 17 19 14 15 17 17
21 20 23 20 21 23 24 24 26 30 35 5 6 8 12 11 11 16 10 13 11 19 6 18 18 15 10 11 9 3 7 6 15 12 16 17 16 16 17 14 10 9 32 13 17 15 13
19 20 20 20 20 21 22 23 23 24 25 7 9 9 9 12 9 10 12 9 19 18 8 1 6 11 18 15 18 5 4 14 15 15 16 17 14 14 14 13 18 17 16 11 15 15 17
20 21 20 22 22 22 22 21 21 19 14 8 10 9 9 12 10 17 8 19 11 10 11 19 10 11 9 20 25 7 13 20 10 43 17 14 14 11 13 16 17 14 14 3 9 10 24
20 21 22 21 22 22 22 21 21 19 16 9 9 7 8 9 11 7 14 26 8 10 9 17 31 3 12 41 15 4 3 6 18 18 19 17 14 11 12 12 13 10 19 19 16 14 5
20 21 21 22 22 21 20 21 20 20 17 10 10 4 8 8 1 13 13 7 10 10 9 11 3 10 7 6 11 4 7 6 8 5 1 1 5 6 7 13 12 14 16 22 21 3 16
21 21 20 22 22 22 22 21 20 21 17 10 8 10 7 9 7 12 12 9 11 14 7 13 13 7 7 6 5 6 5 9 13 5 6 5 2 8 8 2 7 14 18 18 12 6 16
21 21 21 20 21 21 21 20 20 20 17 10 10 4 6 7 13 9 12 11 13 12 8 11 14 4 7 5 3 4 3 4 6 6 8 6 2 8 12 7 3 10 9 4 17 23 8
21 21 21 21 22 22 21 20 18 19 17 11 7 9 5 6 9 15 14 10 8 6 6 5 9 3 6 5 10 6 5 4 10 4 9 9 2 1 4 7 11 10 17 6 15 25 8
Wind_Direction
10 7 4 2 358 354 351 349 348 347 347 343 345 342 337 335 331 329 324 312 295 291 294 299 304 316 298 225 251 147 157 164 194 218 239 253 262 269 265 136 222 184 168 235 183 245 249
7 4 360 357 355 351 348 347 345 344 345 342 340 340 336 334 330 328 327 314 291 287 288 293 301 311 246 255 242 131 192 168 198 208 229 247 262 339 290 105 332 312 243 263 173 234 151
4 2 359 355 351 348 346 346 342 341 341 340 337 339 334 331 328 324 321 306 287 281 282 284 295 283 262 244 256 170 230 190 209 206 229 230 265 271 257 232 211 258 248 232 220 180 113
359 359 356 351 349 346 342 342 341 337 337 338 335 336 333 331 328 324 318 298 283 276 272 276 281 262 259 273 247 250 207 210 207 204 236 240 237 274 285 209 242 231 243 241 33 191 133
358 354 352 349 348 344 342 339 337 335 335 333 334 334 332 329 330 322 316 294 273 265 267 262 245 220 255 151 213 226 226 215 202 206 230 313 287 256 252 233 247 206 235 214 207 243 276
357 355 351 349 346 343 340 338 335 335 332 329 328 332 329 325 325 320 312 287 317 267 224 230 257 253 248 229 195 208 213 222 198 205 211 222 234 243 243 240 234 274 345 209 169 281 243
356 354 351 349 343 341 340 339 335 335 329 328 322 322 324 316 320 324 309 205 197 191 220 217 178 225 140 220 175 196 199 214 200 208 213 210 228 230 239 281 162 253 198 234 177 135 250
352 351 348 343 340 344 342 337 333 330 328 325 322 315 313 313 317 318 281 246 27 347 269 225 255 228 286 141 179 197 192 206 202 207 212 212 229 241 244 204 226 238 271 254 112 164 213
349 349 346 344 342 342 337 332 327 324 319 313 313 314 310 311 319 269 233 245 318 325 271 251 211 227 213 243 212 200 189 207 200 212 207 232 204 242 272 203 229 251 249 291 291 241 226
347 345 348 347 346 345 334 331 324 319 317 315 311 308 312 316 281 223 223 247 264 277 278 206 191 219 211 199 229 204 193 200 219 217 225 227 252 198 224 254 256 242 229 186 252 248 244
345 347 345 343 342 339 335 331 323 318 315 311 309 301 292 282 321 252 349 208 215 245 266 151 174 180 194 196 170 200 183 208 222 209 226 229 239 204 259 249 255 262 191 266 267 238 256
343 343 344 347 344 341 334 327 321 320 317 311 301 292 290 219 223 259 312 322 246 231 244 145 135 174 178 208 239 176 183 221 222 247 227 244 210 245 234 221 259 245 251 257 261 262 253
340 340 341 340 338 335 334 329 325 323 319 309 296 264 233 307 226 203 236 229 212 241 211 160 162 185 196 190 217 191 187 201 221 223 234 223 250 216 261 249 226 251 260 258 232 244 351
339 339 341 341 342 340 333 333 331 329 325 325 316 244 215 236 312 284 207 217 244 216 255 137 168 190 203 190 215 194 192 208 217 220 226 223 213 239 182 245 263 211 237 257 290 323 304
341 340 342 341 340 339 336 335 334 332 331 334 322 193 219 208 232 252 219 220 221 251 227 211 163 179 201 200 205 211 198 214 209 228 238 214 223 210 229 216 245 250 223 169 207 242 264
342 340 342 343 342 340 340 338 338 333 331 334 275 219 157 132 194 222 227 240 237 308 300 291 190 187 197 206 208 192 197 215 225 211 241 263 249 209 211 210 223 245 120 63 305 242 247
341 340 342 343 341 340 342 342 339 335 332 331 243 232 119 148 185 216 224 235 241 246 294 287 270 190 219 204 197 208 216 216 207 224 212 253 269 247 213 192 224 217 241 243 209 243 285
340 341 342 343 340 339 342 344 341 339 334 259 268 274 146 166 198 221 230 243 269 291 199 264 283 296 201 220 195 223 206 217 202 213 202 222 250 255 198 200 221 246 238 229 236 241 212
339 344 344 345 341 343 345 343 341 344 2 311 265 111 166 203 223 203 232 251 244 237 253 226 258 274 279 231 213 211 237 224 173 210 223 200 236 256 246 193 202 225 243 254 272 279 120
343 344 345 345 342 345 345 344 339 341 344 282 276 149 161 214 264 288 247 240 235 236 278 285 282 298 242 232 239 203 232 201 172 230 234 201 236 243 196 274 350 207 232 255 265 286 148
346 342 345 345 345 346 346 346 340 339 337 267 243 262 183 191 221 241 264 245 233 226 206 245 261 250 254 244 210 216 224 190 164 190 212 217 232 247 239 196 95 306 320 294 233 254 267
345 345 348 346 346 348 348 347 345 342 335 237 317 333 338 307 221 231 260 266 274 226 243 211 222 331 300 35 14 73 32 325 169 183 203 208 239 245 254 272 176 210 214 249 269 278 81
338 341 344 346 346 346 348 349 351 352 341 320 10 328 303 287 263 225 227 249 232 249 205 319 91 35 32 33 332 204 163 273 243 277 207 207 217 236 253 251 260 259 242 238 276 337 103
336 342 344 346 347 348 348 349 352 353 0 307 301 316 281 285 296 337 67 341 297 300 320 26 352 80 269 108 272 50 353 300 338 286 195 210 212 230 245 245 242 252 268 233 300 306 96
338 341 342 342 345 346 347 348 348 347 344 313 304 324 310 303 317 14 241 205 300 272 283 134 252 203 248 155 172 108 359 263 282 185 192 189 208 215 242 244 256 265 26 20 344 273 147
339 339 339 341 342 342 343 344 345 347 345 316 301 333 305 292 351 343 315 302 279 318 208 229 167 249 241 245 236 91 270 95 236 266 18 169 18 282 227 245 274 26 351 12 341 55 27
336 336 336 338 340 340 341 341 343 345 341 327 289 309 301 291 292 349 356 327 336 335 347 6 337 265 227 242 49 53 17 4 310 284 222 179 234 275 257 304 88 350 319 350 338 14 338
335 335 334 334 335 336 338 338 339 341 342 337 294 289 323 307 300 343 334 325 340 359 48 327 314 283 312 263 137 114 116 147 265 290 304 294 261 276 266 313 16 41 12 28 323 287 274
334 333 333 332 332 333 334 334 335 336 336 334 280 340 345 265 309 309 293 297 300 321 318 271 296 62 343 330 73 98 42 348 28 276 306 234 113 241 266 70 133 124 128 159 264 284 340